Regional Weather Roundup
Issued by NWS

Home | Current Version | Previous Version | Text Only | Print | Product List | Glossary On
Versions: 1 2 3 4 5 6 7 8 9 10 11 12 13 14 15 16 17 18 19 20 21 22 23 24 25 26 27 28 29 30 31 32 33 34 35 36 37 38 39 40 41 42 43 44 45 46 47 48 49 50
704
ASUS43 KDMX 251908
RWRIA

WEATHER ROUNDUP FOR IOWA
NATIONAL WEATHER SERVICE DES MOINES IA
200 PM CDT SUN SEP 25 2016

NOTE: "FAIR" INDICATES FEW OR NO CLOUDS BELOW 12,000 FEET WITH NO
SIGNIFICANT WEATHER AND/OR OBSTRUCTIONS TO VISIBILITY.

* - THESE STATIONS ARE NOT NWS STATIONS...THUS NOT UNDER NWS
QUALITY CONTROL.  THEY ALSO DO NOT REPORT WEATHER SUCH
AS PRECIPITATION OR FOG.

IAZ001>003-012>014-020>022-031>034-043>046-252000-
   NORTHWEST IOWA

CITY           SKY/WX    TMP DP  RH WIND       PRES   REMARKS
CARROLL *      CLOUDY    66  50  55 MISG      30.07S
CHEROKEE *     CLOUDY    60  50  67 W18G26    30.08S
DENISON *      CLOUDY    64  48  55 NW23G29   30.08S
LE MARS *      CLOUDY    61  50  67 NW18G25   30.11S
ORANGE CITY *  CLOUDY    61  52  72 W22G28    30.09R
SHELDON *      CLOUDY    59  50  72 W17G24    30.06R
SIOUX CITY     CLOUDY    65  49  56 NW20G30   30.10S
SPENCER        CLOUDY    62  50  64 W26G36    30.04S
STORM LAKE *   MOSUNNY   61  48  63 NW20G29   30.07S
$$

IAZ055>058-069>071-079>083-090>094-252000-
   SOUTHWEST IOWA

CITY           SKY/WX    TMP DP  RH WIND       PRES   REMARKS
ATLANTIC *     CLOUDY    68  52  56 NW15G23   30.09F
AUDUBON *      PTSUNNY   66  52  59 NW12G18   30.09F
CLARINDA *       N/A     66  52  59 MISG      30.14S
COUNCIL BLFS * PTSUNNY   70  50  49 NW14G23   30.11S
CRESTON *      MOSUNNY   64  52  63 NW16      30.11S
HARLAN  *      CLOUDY    68  50  52 NW22G31   30.13S
LAMONI         CLOUDY    64  54  69 NW12      30.10S
RED OAK *      CLOUDY    68  52  56 W13G21    30.11F
SHENANDOAH *   CLOUDY    70  52  52 NW14      30.13F
$$

IAZ047>049-059>061-072>074-084-252000-
   CENTRAL IOWA

CITY           SKY/WX    TMP DP  RH WIND       PRES   REMARKS
AMES           PTSUNNY   67  55  65 W14       30.04F
ANKENY *         N/A    N/A N/A N/A MISG        N/A
BOONE *        CLOUDY    64  52  63 W13G22    30.05S
CHARITON *       N/A     66  55  68 W8G17     30.07F
DES MOINES     CLOUDY    67  52  58 W17       30.05F
GRINNELL*      CLOUDY    67  56  69 W14       30.04F
KNOXVILLE *    CLOUDY    66  54  63 W13       30.04F
MARSHALLTOWN   CLOUDY    67  53  61 W17       30.02F
NEWTON *       CLOUDY    68  54  60 W14       30.03F
PELLA *        CLOUDY    67  55  64 W10G16    30.06S
PERRY *          N/A     67  52  59 W16G22    30.06F
$$

IAZ004>006-015-016-023>025-035-036-252000-
   NORTH CENTRAL IOWA

CITY           SKY/WX    TMP DP  RH WIND       PRES   REMARKS
ALGONA *       CLOUDY    64  50  59 W16G28    30.02S
CLARION *      CLOUDY    66  52  59 W17G24    30.01F
ESTHERVILLE    CLOUDY    61  50  67 W21G28    30.01F
FORT DODGE *   CLOUDY    64  52  63 W14G24    30.03F
MASON CITY     PTSUNNY   64  51  62 W15G25    30.00F
FOREST CITY *  PTSUNNY   64  50  59 W9G17     29.99F
WEBSTER CITY * CLOUDY    66  52  59 W17G24    30.01F
IOWA FALLS *     N/A     66  53  61 W15G25    30.04S
$$

IAZ007>011-017>019-026>030-037>042-050>054-066-252000-
   NORTHEAST IOWA

CITY           SKY/WX    TMP DP  RH WIND       PRES   REMARKS
CEDAR RAPIDS   CLOUDY    74  68  81 W13       29.98F
CHARLES CITY * CLOUDY    66  52  59 W13G22    29.99F
CLINTON *      CLOUDY    83  69  62 W10G20    29.94F HX  86
DECORAH *      MOSUNNY   72  57  60 VRB7      29.94F
DUBUQUE        PTSUNNY   76  66  71 W13G23    29.95F
MONTICELLO *   CLOUDY    77  66  69 SW17      29.95F
OELWEIN *      CLOUDY    72  57  60 W12G18    29.98F
WATERLOO       CLOUDY    71  54  54 W14       29.97F
$$

IAZ064-065-067-068-078-252000-
   EAST CENTRAL IOWA

CITY           SKY/WX    TMP DP  RH WIND       PRES   REMARKS
DAVENPORT      MOSUNNY   84  64  50 SW14G21   29.96F HX  85
IOWA CITY      CLOUDY    76  67  73 W12       29.99F
MT. PLEASANT * CLOUDY    80  67  64 W15       30.01S HX  82
MUSCATINE *    PTSUNNY   82  66  57 SW18G25   29.97F HX  85
QUAD CITIES    CLOUDY    85  65  51 SW18G24   29.95F HX  86
$$

IAZ062-063-075>077-085>089-095>099-252000-
   SOUTHEAST IOWA

CITY           SKY/WX    TMP DP  RH WIND       PRES   REMARKS
BURLINGTON     MOSUNNY   83  67  58 SW16G23   30.00F HX  85
FAIRFIELD *    CLOUDY    73  57  56 W13G18    30.03S
FORT MADISON *   N/A     79  66  65 W10G18    30.02F HX  81
KEOKUK *       CLOUDY    79  66  65 W13       30.01F HX  81
OSKALOOSA *      N/A     69  51  51 W10G18    30.04F
OTTUMWA        CLOUDY    68  55  63 W12       30.04F
WASHINGTON *     N/A    N/A N/A N/A MISG        N/A
$$

ABBREVIATIONS USED IN REMARKS
   TC - TEMPERATURES IN CELSIUS
  WCI - WIND CHILL INDEX
   HX - HEAT INDEX
  VSB - VISIBILITY
$$





USA.gov is the U.S. government's official web portal to all federal, state and local government web resources and services.